Precipitable_Water
0.76 0.76 0.74 0.71 0.72 0.74 0.74 0.74 0.73 0.72 0.71 0.68 0.65 0.63 0.63 0.63 0.65 0.66 0.66 0.68 0.70 0.72 0.75 0.73 0.72 0.73 0.70 0.71 0.70 0.66 0.63 0.64 0.56 0.62 0.67 0.69 0.69 0.67 0.69 0.71 0.68 0.68 0.69
0.72 0.70 0.69 0.70 0.71 0.70 0.70 0.71 0.72 0.71 0.72 0.70 0.68 0.66 0.64 0.65 0.66 0.67 0.66 0.68 0.66 0.65 0.65 0.63 0.61 0.62 0.61 0.61 0.61 0.59 0.59 0.62 0.58 0.54 0.59 0.63 0.64 0.65 0.65 0.62 0.56 0.59 0.62
0.69 0.69 0.68 0.68 0.68 0.67 0.68 0.69 0.70 0.71 0.72 0.71 0.70 0.67 0.66 0.68 0.69 0.70 0.69 0.66 0.64 0.60 0.60 0.58 0.57 0.58 0.55 0.56 0.57 0.57 0.58 0.60 0.60 0.58 0.57 0.62 0.54 0.48 0.46 0.49 0.48 0.50 0.55
0.67 0.68 0.68 0.68 0.67 0.67 0.68 0.69 0.69 0.70 0.70 0.71 0.71 0.70 0.69 0.69 0.68 0.67 0.64 0.62 0.61 0.60 0.60 0.59 0.58 0.58 0.57 0.57 0.57 0.58 0.58 0.58 0.59 0.57 0.50 0.43 0.41 0.42 0.42 0.39 0.40 0.44 0.43
0.68 0.68 0.68 0.68 0.69 0.68 0.68 0.69 0.71 0.70 0.71 0.72 0.72 0.72 0.70 0.68 0.66 0.63 0.61 0.60 0.59 0.59 0.62 0.61 0.59 0.55 0.49 0.46 0.42 0.41 0.42 0.39 0.38 0.37 0.33 0.33 0.33 0.33 0.32 0.35 0.33 0.33 0.34
0.69 0.69 0.67 0.66 0.67 0.68 0.69 0.70 0.71 0.71 0.70 0.71 0.71 0.69 0.67 0.65 0.64 0.63 0.61 0.60 0.61 0.58 0.51 0.45 0.38 0.34 0.34 0.32 0.32 0.31 0.30 0.28 0.27 0.28 0.28 0.27 0.27 0.27 0.26 0.25 0.23 0.20 0.19
0.69 0.67 0.65 0.66 0.65 0.66 0.68 0.68 0.69 0.70 0.72 0.71 0.70 0.69 0.66 0.64 0.63 0.61 0.61 0.58 0.48 0.38 0.32 0.28 0.25 0.25 0.24 0.24 0.25 0.24 0.25 0.26 0.25 0.25 0.23 0.24 0.24 0.24 0.25 0.24 0.23 0.22 0.20
0.69 0.67 0.67 0.66 0.64 0.66 0.66 0.64 0.66 0.71 0.71 0.71 0.69 0.67 0.63 0.61 0.60 0.56 0.41 0.33 0.27 0.23 0.22 0.23 0.25 0.27 0.28 0.26 0.26 0.25 0.26 0.28 0.28 0.28 0.28 0.28 0.28 0.29 0.28 0.26 0.25 0.23 0.22
0.69 0.68 0.67 0.67 0.66 0.65 0.62 0.62 0.66 0.68 0.67 0.64 0.62 0.60 0.59 0.53 0.42 0.32 0.27 0.24 0.23 0.24 0.26 0.28 0.29 0.31 0.33 0.30 0.28 0.25 0.25 0.26 0.29 0.29 0.28 0.28 0.28 0.28 0.28 0.26 0.23 0.20 0.18
0.67 0.68 0.70 0.67 0.65 0.64 0.64 0.64 0.64 0.65 0.64 0.64 0.60 0.54 0.44 0.35 0.31 0.27 0.25 0.24 0.24 0.25 0.27 0.30 0.32 0.34 0.34 0.34 0.31 0.27 0.24 0.25 0.27 0.26 0.25 0.23 0.23 0.23 0.23 0.22 0.22 0.20 0.20
0.68 0.69 0.69 0.67 0.67 0.66 0.65 0.64 0.64 0.63 0.61 0.58 0.51 0.38 0.33 0.32 0.30 0.28 0.27 0.26 0.27 0.28 0.29 0.29 0.32 0.35 0.35 0.34 0.33 0.28 0.28 0.28 0.27 0.24 0.23 0.23 0.24 0.25 0.25 0.26 0.26 0.26 0.24
0.68 0.67 0.67 0.66 0.67 0.65 0.62 0.61 0.61 0.59 0.56 0.46 0.33 0.32 0.32 0.31 0.32 0.33 0.33 0.32 0.32 0.30 0.29 0.30 0.32 0.33 0.33 0.35 0.35 0.31 0.31 0.28 0.25 0.24 0.23 0.23 0.24 0.25 0.27 0.29 0.30 0.31 0.32
0.68 0.75 0.69 0.65 0.65 0.65 0.62 0.59 0.56 0.55 0.43 0.34 0.31 0.30 0.29 0.28 0.29 0.32 0.35 0.36 0.36 0.31 0.32 0.32 0.35 0.35 0.33 0.32 0.31 0.31 0.31 0.27 0.25 0.24 0.24 0.25 0.27 0.29 0.31 0.32 0.33 0.34 0.34
0.71 0.67 0.65 0.62 0.61 0.62 0.60 0.57 0.54 0.42 0.35 0.31 0.30 0.29 0.28 0.27 0.27 0.29 0.33 0.35 0.34 0.35 0.35 0.36 0.37 0.36 0.35 0.33 0.32 0.31 0.29 0.28 0.27 0.26 0.26 0.27 0.29 0.30 0.31 0.33 0.32 0.32 0.31
0.72 0.70 0.66 0.63 0.61 0.59 0.58 0.56 0.48 0.39 0.35 0.32 0.31 0.31 0.30 0.29 0.29 0.30 0.31 0.32 0.34 0.36 0.37 0.38 0.37 0.36 0.34 0.32 0.31 0.31 0.30 0.29 0.28 0.28 0.28 0.28 0.29 0.29 0.31 0.32 0.32 0.31 0.30
0.74 0.70 0.66 0.63 0.59 0.58 0.55 0.51 0.47 0.41 0.40 0.38 0.37 0.35 0.33 0.33 0.33 0.33 0.34 0.35 0.38 0.40 0.39 0.37 0.37 0.36 0.35 0.33 0.32 0.31 0.31 0.30 0.30 0.30 0.30 0.30 0.30 0.30 0.31 0.32 0.31 0.30 0.29
0.76 0.75 0.73 0.64 0.59 0.56 0.53 0.49 0.40 0.41 0.44 0.42 0.40 0.40 0.38 0.35 0.36 0.36 0.38 0.39 0.40 0.40 0.38 0.38 0.37 0.37 0.36 0.35 0.34 0.33 0.33 0.33 0.33 0.32 0.32 0.32 0.32 0.32 0.31 0.30 0.30 0.29 0.27
0.77 0.77 0.76 0.73 0.63 0.59 0.54 0.50 0.44 0.41 0.39 0.39 0.43 0.43 0.43 0.42 0.38 0.39 0.40 0.41 0.40 0.40 0.39 0.38 0.37 0.37 0.36 0.36 0.36 0.37 0.36 0.35 0.36 0.35 0.34 0.34 0.33 0.32 0.31 0.29 0.28 0.25 0.23
0.72 0.76 0.77 0.77 0.73 0.68 0.65 0.63 0.63 0.60 0.55 0.51 0.49 0.50 0.50 0.49 0.49 0.49 0.46 0.42 0.40 0.39 0.39 0.38 0.37 0.37 0.36 0.37 0.39 0.39 0.39 0.40 0.39 0.38 0.36 0.35 0.35 0.33 0.30 0.27 0.26 0.25 0.24
0.69 0.70 0.71 0.71 0.70 0.69 0.68 0.64 0.59 0.57 0.55 0.53 0.52 0.54 0.56 0.55 0.53 0.51 0.51 0.49 0.45 0.42 0.41 0.39 0.38 0.37 0.37 0.38 0.40 0.42 0.43 0.42 0.41 0.41 0.40 0.39 0.35 0.32 0.29 0.28 0.27 0.25 0.25
0.64 0.66 0.68 0.67 0.66 0.65 0.64 0.63 0.63 0.63 0.63 0.60 0.59 0.59 0.55 0.52 0.52 0.49 0.48 0.49 0.49 0.44 0.41 0.39 0.40 0.38 0.39 0.41 0.42 0.44 0.44 0.44 0.43 0.43 0.40 0.37 0.35 0.31 0.29 0.27 0.26 0.26 0.25
0.63 0.64 0.65 0.63 0.63 0.61 0.61 0.60 0.59 0.58 0.59 0.58 0.58 0.58 0.61 0.58 0.55 0.52 0.52 0.52 0.51 0.44 0.44 0.41 0.40 0.40 0.42 0.42 0.43 0.45 0.45 0.44 0.43 0.39 0.36 0.35 0.33 0.30 0.28 0.27 0.26 0.25 0.24
0.60 0.59 0.60 0.60 0.60 0.59 0.58 0.58 0.56 0.56 0.55 0.56 0.56 0.57 0.58 0.58 0.57 0.55 0.52 0.56 0.49 0.47 0.46 0.41 0.41 0.43 0.43 0.44 0.45 0.45 0.44 0.41 0.39 0.39 0.35 0.33 0.32 0.30 0.28 0.26 0.25 0.24 0.23
0.59 0.59 0.59 0.59 0.59 0.59 0.59 0.57 0.57 0.57 0.57 0.57 0.57 0.57 0.57 0.56 0.55 0.54 0.55 0.56 0.51 0.52 0.44 0.43 0.45 0.45 0.39 0.42 0.45 0.45 0.40 0.38 0.38 0.36 0.34 0.33 0.32 0.31 0.28 0.27 0.25 0.24 0.25
0.57 0.58 0.58 0.57 0.55 0.54 0.52 0.51 0.52 0.54 0.56 0.56 0.57 0.58 0.58 0.57 0.56 0.56 0.55 0.54 0.55 0.48 0.46 0.46 0.45 0.40 0.44 0.43 0.40 0.38 0.37 0.37 0.37 0.35 0.34 0.34 0.32 0.30 0.27 0.26 0.26 0.27 0.27
0.46 0.44 0.42 0.42 0.42 0.42 0.43 0.45 0.47 0.47 0.50 0.54 0.55 0.56 0.57 0.57 0.57 0.56 0.56 0.55 0.52 0.48 0.47 0.48 0.45 0.44 0.40 0.37 0.35 0.35 0.35 0.36 0.36 0.36 0.36 0.35 0.31 0.27 0.26 0.27 0.28 0.28 0.27
Wind_Speed
32 32 32 32 32 31 31 32 32 31 31 30 30 29 29 28 28 27 26 26 26 25 25 24 24 24 24 24 24 24 24 25 25 25 25 25 24 24 23 21 19 17 17
32 32 32 32 32 32 32 32 31 31 31 30 30 29 29 28 27 26 25 24 23 23 22 21 21 21 22 22 22 23 24 25 25 25 24 23 21 20 18 16 16 16 16
31 31 31 32 32 32 32 32 32 32 32 31 30 29 29 28 27 26 24 23 22 21 21 20 20 20 20 20 21 22 23 23 23 21 20 18 17 16 16 16 16 17 17
30 30 31 31 31 32 32 32 32 31 31 31 30 29 29 27 26 25 23 22 20 20 19 18 17 17 17 18 18 18 19 18 17 15 15 16 16 17 17 18 18 18 19
27 28 29 29 30 30 30 30 30 30 30 30 29 28 27 26 24 22 21 20 19 17 15 14 13 13 13 15 16 16 17 16 15 16 16 17 18 18 18 19 19 20 20
27 27 28 28 28 28 27 27 27 26 26 27 26 25 23 21 20 20 19 17 15 13 12 12 12 13 14 14 15 15 16 16 16 16 17 18 19 19 19 19 20 20 20
25 26 26 26 26 27 26 25 25 25 23 22 21 21 20 19 18 17 15 13 12 12 12 12 12 13 14 14 15 15 16 16 17 18 18 19 19 19 20 20 20 21 21
23 24 23 23 23 23 24 24 24 24 23 22 21 19 18 17 15 14 13 12 11 11 11 11 12 13 14 15 15 16 17 17 18 18 18 19 19 20 20 21 21 22 22
23 23 23 22 21 20 20 19 19 20 20 19 18 17 16 15 14 13 13 12 12 11 12 12 13 14 14 15 16 17 18 18 19 19 19 20 20 21 21 21 22 22 22
23 22 22 22 21 20 18 17 17 16 16 16 16 15 15 14 14 14 13 12 12 12 13 13 14 15 16 17 17 18 19 19 19 20 20 20 20 21 21 21 21 22 22
21 21 20 20 19 20 18 18 17 16 15 15 15 15 15 15 14 14 13 13 13 13 14 15 15 16 17 18 18 19 19 19 19 20 20 20 20 20 21 21 22 22 23
20 20 19 18 18 17 17 17 17 16 16 16 16 16 16 15 15 15 15 14 14 14 15 16 16 17 18 19 19 20 20 20 20 20 21 21 21 21 22 23 24 24 25
18 20 19 17 17 17 17 17 18 18 17 17 17 17 17 17 17 17 16 16 16 16 17 17 18 19 19 20 21 21 21 21 21 22 22 22 22 23 24 25 25 26 27
20 20 18 17 17 17 17 17 18 18 18 18 18 18 18 18 18 18 18 18 18 18 18 19 19 20 21 21 21 22 22 22 22 23 23 23 24 24 24 25 26 27 28
18 18 19 18 18 18 18 19 19 19 19 19 19 19 19 19 19 19 19 19 19 20 20 20 21 21 22 22 22 23 23 23 23 24 24 24 24 25 26 26 27 29 30
20 20 18 18 18 19 19 20 21 20 21 21 21 21 21 21 21 21 21 21 21 21 22 22 23 23 23 24 24 24 24 24 24 24 25 25 25 26 27 28 29 30 32
20 21 21 20 19 18 19 19 20 21 22 22 23 23 23 22 23 23 22 23 23 23 24 24 24 25 25 25 25 25 25 25 25 26 26 27 27 28 29 30 31 32 33
17 20 21 22 21 20 20 20 20 21 22 22 24 24 25 25 24 24 24 24 24 25 25 25 25 26 26 26 26 26 26 26 27 27 28 28 28 29 30 31 32 32 34
20 18 19 20 19 20 20 21 21 22 22 23 23 24 25 25 26 26 25 25 25 25 26 27 27 27 27 26 27 27 27 28 28 28 28 28 29 30 30 31 32 34 35
22 23 23 23 23 24 24 24 24 25 25 26 26 26 26 26 27 27 27 28 28 28 28 28 28 28 27 28 28 28 29 29 29 29 29 29 29 29 31 32 33 34 35
22 22 23 23 24 25 25 26 27 28 28 29 29 30 30 30 31 31 31 31 30 30 29 29 29 29 28 29 29 29 29 29 29 29 29 29 29 30 32 33 35 35 36
22 22 22 22 22 23 24 25 27 28 29 30 31 32 33 33 32 32 32 32 32 31 30 30 29 29 30 29 29 29 29 29 29 29 29 30 31 32 33 34 35 36 36
21 22 21 22 22 23 23 24 25 27 28 30 31 32 33 34 34 34 33 33 32 31 31 31 30 30 30 30 30 29 29 29 29 29 30 32 33 34 35 36 36 36 36
19 20 20 21 22 23 23 24 26 28 29 30 30 31 32 33 33 32 32 32 31 31 31 31 30 30 29 29 29 29 29 30 31 32 33 34 35 36 37 37 37 37 37
17 18 18 20 21 21 22 24 24 25 26 28 29 30 30 30 30 30 30 30 30 29 29 29 29 28 28 28 28 29 30 32 33 34 35 36 37 38 38 38 38 38 38
16 17 18 19 19 21 22 23 24 24 25 26 26 27 27 28 28 28 27 28 27 27 27 27 27 27 27 27 28 30 32 34 35 36 36 37 37 38 38 38 38 38 38
Wind_Direction
248 252 255 258 260 261 262 262 263 264 267 269 270 271 274 276 277 278 279 279 279 280 280 280 280 280 281 283 284 285 285 287 288 288 287 289 290 291 292 290 290 291 293
249 252 256 258 260 260 261 263 263 263 265 267 268 269 271 273 275 276 276 277 278 278 279 279 280 281 283 285 285 286 288 288 288 287 287 287 289 292 291 288 290 292 294
250 254 257 259 260 261 261 262 262 263 263 265 266 267 269 271 272 273 273 274 275 277 278 279 281 283 285 286 289 289 291 291 291 287 286 286 287 290 289 289 290 293 294
253 256 257 259 260 261 261 262 262 262 263 263 264 266 268 269 268 269 268 269 271 274 276 279 282 285 286 290 292 294 295 295 294 289 287 287 287 288 289 290 290 292 294
252 256 260 262 262 261 262 262 262 262 262 262 263 264 264 264 263 262 263 264 266 269 274 277 283 288 293 294 295 296 296 295 292 289 288 288 288 289 289 290 290 292 293
254 258 260 261 262 261 262 262 262 261 260 259 259 259 259 257 255 256 258 258 258 260 265 273 281 289 295 297 299 300 299 295 292 290 289 289 289 289 289 290 291 293 293
257 259 260 261 262 261 260 260 259 257 257 257 254 253 251 250 251 248 246 246 248 257 265 274 283 291 295 297 299 300 301 298 295 292 291 290 289 289 290 291 292 293 293
259 259 259 260 261 260 258 257 256 252 251 252 251 247 244 242 237 234 234 242 249 258 267 276 285 291 296 299 300 300 299 298 296 295 293 291 290 290 290 292 293 294 294
259 257 257 258 259 258 255 253 250 246 247 244 240 236 232 230 227 229 236 244 252 261 269 279 286 292 295 300 301 301 299 297 296 294 293 292 291 290 291 292 293 295 295
257 256 255 255 255 254 251 247 244 241 236 231 226 224 224 226 230 234 241 248 257 264 272 279 287 291 296 298 301 301 300 298 296 295 294 293 292 291 292 292 293 294 295
254 254 253 253 251 247 244 240 237 234 229 225 221 224 227 232 233 238 245 254 261 268 274 281 287 292 295 298 299 301 301 300 297 296 295 294 293 292 292 293 294 294 294
251 250 250 248 245 241 237 234 229 227 224 224 226 231 233 236 240 244 250 258 264 271 277 284 288 292 296 297 297 299 299 299 298 297 296 294 293 293 293 293 294 294 294
247 249 245 245 240 236 232 229 228 228 229 231 234 237 239 242 246 249 254 259 265 273 280 285 289 293 296 297 297 298 297 297 296 295 294 294 293 293 294 295 294 295 295
252 242 240 239 237 234 232 231 231 232 234 236 240 242 244 247 249 253 257 262 268 274 280 285 288 292 295 297 297 298 298 297 296 295 294 293 293 294 295 295 296 297 298
242 239 239 238 237 236 236 235 236 238 239 241 243 244 247 250 253 256 260 265 270 275 280 285 288 292 294 294 296 297 297 296 295 294 293 293 293 293 294 296 296 298 298
243 240 238 237 237 238 238 240 241 243 244 246 248 249 252 255 257 259 262 266 270 274 279 283 287 290 291 293 294 296 295 295 295 294 293 293 293 293 294 296 297 297 298
241 237 239 237 238 239 241 243 245 247 249 251 252 253 255 258 258 260 264 267 271 275 279 283 286 288 290 292 293 293 294 294 294 294 293 293 293 294 295 296 297 298 299
246 242 239 237 238 243 245 246 248 250 252 254 255 256 257 259 261 263 265 269 273 275 278 281 285 287 289 290 291 292 293 293 293 293 293 293 293 294 295 297 298 299 300
246 244 239 238 240 244 247 250 252 254 256 257 259 259 259 260 262 264 266 269 272 276 278 281 284 286 287 288 289 291 291 292 293 293 293 293 294 295 296 297 299 299 300
248 246 245 247 249 250 252 253 255 256 259 260 261 262 262 262 263 264 266 269 272 276 279 281 283 285 286 287 288 289 291 292 293 293 293 294 295 295 296 299 300 301 301
248 249 248 250 252 253 255 257 259 260 262 263 263 264 262 264 265 266 267 269 272 274 277 279 282 283 285 288 288 289 290 292 292 293 293 294 295 296 298 300 301 301 301
248 249 249 251 254 256 258 261 262 264 265 266 266 266 265 265 267 267 268 269 271 272 274 277 281 282 285 285 287 288 290 291 292 292 293 294 296 297 299 300 302 301 302
248 248 249 252 256 260 263 266 267 268 269 270 269 269 267 266 267 266 266 268 269 271 273 276 279 282 283 284 286 287 289 290 292 293 294 296 297 298 299 300 301 301 301
249 249 252 256 260 264 267 270 272 272 273 272 271 271 270 268 266 266 266 266 268 271 273 275 278 281 282 283 285 287 288 290 292 293 294 296 297 297 298 299 299 300 300
251 253 256 260 263 266 271 275 277 278 277 276 274 273 272 269 267 266 265 266 267 271 272 275 278 280 281 283 285 287 290 292 293 294 295 296 296 297 297 298 298 299 299
256 258 261 265 268 272 274 277 279 280 281 279 278 277 274 269 267 266 265 264 267 270 272 275 278 279 281 285 287 290 292 294 295 295 295 296 297 297 297 297 297 298 298